Météo par heure à Alio

Ce jour, 13 Mai, Jeudi

Heure Température Précipitation Vent Pression Humidité
00:00 +12°C° 0 mm 5 m/s 736 mmHg 55%
01:00 +12°C° 0 mm 5 m/s 735 mmHg 57%
02:00 +10°C° 0 mm 5 m/s 735 mmHg 59%
03:00 +9°C° 0 mm 5 m/s 735 mmHg 61%
04:00 +9°C° 0 mm 5 m/s 735 mmHg 61%
05:00 +10°C° 0 mm 5 m/s 736 mmHg 61%
06:00 +10°C° 0 mm 5 m/s 736 mmHg 60%
07:00 +12°C° 0 mm 5 m/s 736 mmHg 55%
08:00 +14°C° 0 mm 6 m/s 736 mmHg 49%
09:00 +16°C° 0 mm 6 m/s 736 mmHg 44%
10:00 +17°C° 0 mm 6 m/s 735 mmHg 40%
11:00 +19°C° 0 mm 6 m/s 735 mmHg 37%
12:00 +21°C° 0 mm 6 m/s 735 mmHg 33%
13:00 +21°C° 0 mm 6 m/s 734 mmHg 35%
14:00 +21°C° 0 mm 7 m/s 734 mmHg 36%
15:00 +22°C° 0 mm 7 m/s 733 mmHg 38%
16:00 +20°C° 0.1 mm 7 m/s 733 mmHg 48%
17:00 +17°C° 0.1 mm 7 m/s 733 mmHg 57%
18:00 +16°C° 0.1 mm 6 m/s 733 mmHg 67%
19:00 +15°C° 0.2 mm 6 m/s 733 mmHg 69%
20:00 +15°C° 0.2 mm 5 m/s 733 mmHg 72%
21:00 +14°C° 0.2 mm 4 m/s 733 mmHg 74%
22:00 +14°C° 0 mm 4 m/s 733 mmHg 77%
23:00 +14°C° 0 mm 4 m/s 733 mmHg 79%

Demain, 14 Mai, Vendredi

Heure Température Précipitation Vent Pression Humidité
00:00 +14°C° 0 mm 4 m/s 733 mmHg 81%
01:00 +13°C° 0 mm 4 m/s 733 mmHg 83%
02:00 +13°C° 0 mm 3 m/s 733 mmHg 84%
03:00 +13°C° 0 mm 3 m/s 732 mmHg 86%
04:00 +13°C° 0 mm 4 m/s 733 mmHg 80%
05:00 +13°C° 0 mm 4 m/s 733 mmHg 75%
06:00 +13°C° 0 mm 4 m/s 734 mmHg 69%
07:00 +14°C° 0 mm 4 m/s 734 mmHg 62%
08:00 +15°C° 0 mm 5 m/s 734 mmHg 55%
09:00 +16°C° 0 mm 5 m/s 734 mmHg 47%
10:00 +17°C° 0.1 mm 5 m/s 734 mmHg 47%
11:00 +19°C° 0.1 mm 4 m/s 735 mmHg 46%
12:00 +20°C° 0.1 mm 4 m/s 735 mmHg 45%
13:00 +20°C° 0.1 mm 5 m/s 735 mmHg 45%
14:00 +20°C° 0.1 mm 5 m/s 735 mmHg 45%
15:00 +19°C° 0.1 mm 5 m/s 735 mmHg 45%
16:00 +19°C° 0 mm 5 m/s 735 mmHg 46%
17:00 +18°C° 0 mm 4 m/s 735 mmHg 48%
18:00 +18°C° 0 mm 4 m/s 736 mmHg 49%
19:00 +17°C° 0 mm 4 m/s 736 mmHg 54%
20:00 +14°C° 0 mm 3 m/s 736 mmHg 58%
21:00 +14°C° 0 mm 2 m/s 737 mmHg 63%
22:00 +14°C° 0 mm 2 m/s 736 mmHg 68%
23:00 +13°C° 0 mm 2 m/s 736 mmHg 73%

Après-demain, 15 Mai, Samedi

Heure Température Précipitation Vent Pression Humidité
00:00 +13°C° 0 mm 1 m/s 736 mmHg 78%
01:00 +13°C° 0 mm 1 m/s 736 mmHg 78%
02:00 +13°C° 0 mm 2 m/s 735 mmHg 78%
03:00 +13°C° 0 mm 2 m/s 735 mmHg 78%
04:00 +14°C° 0 mm 1 m/s 735 mmHg 76%
05:00 +14°C° 0 mm 1 m/s 735 mmHg 73%
06:00 +15°C° 0 mm 1 m/s 735 mmHg 70%
07:00 +17°C° 0 mm 2 m/s 735 mmHg 61%
08:00 +19°C° 0 mm 2 m/s 735 mmHg 53%
09:00 +21°C° 0 mm 3 m/s 735 mmHg 44%
10:00 +22°C° 0 mm 4 m/s 734 mmHg 42%
11:00 +23°C° 0 mm 5 m/s 734 mmHg 40%
12:00 +24°C° 0 mm 6 m/s 734 mmHg 38%
13:00 +26°C° 0 mm 6 m/s 733 mmHg 39%
14:00 +26°C° 0 mm 7 m/s 733 mmHg 40%
15:00 +27°C° 0 mm 7 m/s 732 mmHg 40%
16:00 +26°C° 0 mm 6 m/s 732 mmHg 43%
17:00 +26°C° 0 mm 5 m/s 732 mmHg 46%
18:00 +25°C° 0 mm 5 m/s 732 mmHg 48%
19:00 +23°C° 0 mm 4 m/s 732 mmHg 53%
20:00 +22°C° 0 mm 3 m/s 733 mmHg 58%
21:00 +20°C° 0 mm 2 m/s 733 mmHg 63%
22:00 +20°C° 0 mm 2 m/s 733 mmHg 63%
23:00 +20°C° 0 mm 3 m/s 733 mmHg 64%

16 Mai, Dimanche

Heure Température Précipitation Vent Pression Humidité
00:00 +20°C° 0 mm 3 m/s 733 mmHg 65%
01:00 +19°C° 0 mm 3 m/s 733 mmHg 69%
02:00 +18°C° 0 mm 3 m/s 733 mmHg 73%
03:00 +17°C° 0 mm 3 m/s 732 mmHg 76%
04:00 +18°C° 0 mm 3 m/s 733 mmHg 76%
05:00 +18°C° 0 mm 3 m/s 733 mmHg 75%
06:00 +18°C° 0 mm 3 m/s 733 mmHg 74%
07:00 +19°C° 0 mm 3 m/s 733 mmHg 68%
08:00 +21°C° 0 mm 4 m/s 734 mmHg 62%
09:00 +22°C° 0 mm 5 m/s 734 mmHg 56%
10:00 +23°C° 0 mm 5 m/s 734 mmHg 53%
11:00 +25°C° 0 mm 5 m/s 733 mmHg 50%
12:00 +26°C° 0 mm 6 m/s 733 mmHg 47%
13:00 +24°C° 0 mm 6 m/s 733 mmHg 49%
14:00 +25°C° 0 mm 5 m/s 733 mmHg 52%
15:00 +23°C° 0 mm 5 m/s 733 mmHg 54%
16:00 +21°C° 0 mm 4 m/s 733 mmHg 60%
17:00 +20°C° 0 mm 4 m/s 733 mmHg 66%
18:00 +18°C° 0 mm 3 m/s 734 mmHg 72%
19:00 +17°C° 0 mm 3 m/s 734 mmHg 75%
20:00 +17°C° 0 mm 3 m/s 734 mmHg 77%
21:00 +15°C° 0 mm 4 m/s 735 mmHg 79%
22:00 +16°C° 0.1 mm 3 m/s 735 mmHg 82%
23:00 +16°C° 0.1 mm 3 m/s 735 mmHg 84%

17 Mai, Lundi

Heure Température Précipitation Vent Pression Humidité
00:00 +14°C° 0.1 mm 3 m/s 735 mmHg 86%
01:00 +14°C° 0.1 mm 3 m/s 735 mmHg 85%
02:00 +14°C° 0.1 mm 3 m/s 735 mmHg 85%
03:00 +14°C° 0.1 mm 3 m/s 735 mmHg 84%
04:00 +14°C° 0 mm 3 m/s 736 mmHg 81%
05:00 +13°C° 0 mm 4 m/s 736 mmHg 77%
06:00 +13°C° 0 mm 4 m/s 737 mmHg 74%
07:00 +14°C° 0 mm 5 m/s 737 mmHg 61%
08:00 +16°C° 0 mm 6 m/s 737 mmHg 48%
09:00 +17°C° 0 mm 7 m/s 737 mmHg 35%
10:00 +18°C° 0 mm 8 m/s 737 mmHg 32%
11:00 +20°C° 0 mm 8 m/s 737 mmHg 29%
12:00 +22°C° 0 mm 8 m/s 737 mmHg 27%
13:00 +22°C° 0 mm 9 m/s 736 mmHg 26%
14:00 +22°C° 0 mm 9 m/s 736 mmHg 26%
15:00 +23°C° 0 mm 10 m/s 736 mmHg 25%
16:00 +21°C° 0 mm 10 m/s 736 mmHg 29%
17:00 +19°C° 0 mm 10 m/s 736 mmHg 33%
18:00 +18°C° 0 mm 10 m/s 737 mmHg 37%
19:00 +16°C° 0 mm 8 m/s 737 mmHg 42%
20:00 +15°C° 0 mm 6 m/s 738 mmHg 47%
21:00 +14°C° 0 mm 4 m/s 739 mmHg 52%
22:00 +13°C° 0 mm 3 m/s 739 mmHg 56%
23:00 +12°C° 0 mm 3 m/s 739 mmHg 60%

18 Mai, Mardi

Heure Température Précipitation Vent Pression Humidité
00:00 +12°C° 0 mm 2 m/s 740 mmHg 64%
01:00 +12°C° 0 mm 2 m/s 740 mmHg 63%
02:00 +12°C° 0 mm 2 m/s 740 mmHg 62%
03:00 +10°C° 0 mm 2 m/s 740 mmHg 61%
04:00 +12°C° 0 mm 2 m/s 741 mmHg 60%
05:00 +12°C° 0 mm 2 m/s 741 mmHg 59%
06:00 +12°C° 0 mm 2 m/s 742 mmHg 57%
07:00 +14°C° 0 mm 2 m/s 742 mmHg 55%
08:00 +15°C° 0 mm 2 m/s 742 mmHg 52%
09:00 +17°C° 0 mm 2 m/s 742 mmHg 49%
10:00 +18°C° 0 mm 3 m/s 742 mmHg 46%
11:00 +19°C° 0 mm 3 m/s 742 mmHg 42%
12:00 +20°C° 0 mm 4 m/s 742 mmHg 39%
13:00 +20°C° 0 mm 4 m/s 741 mmHg 39%
14:00 +21°C° 0 mm 4 m/s 741 mmHg 39%
15:00 +21°C° 0 mm 4 m/s 741 mmHg 39%
16:00 +20°C° 0 mm 4 m/s 741 mmHg 45%
17:00 +19°C° 0 mm 3 m/s 741 mmHg 50%
18:00 +18°C° 0 mm 3 m/s 741 mmHg 55%
19:00 +17°C° 0 mm 3 m/s 741 mmHg 63%
20:00 +14°C° 0 mm 3 m/s 741 mmHg 70%
21:00 +14°C° 0 mm 2 m/s 742 mmHg 77%
22:00 +14°C° 0 mm 2 m/s 742 mmHg 79%
23:00 +14°C° 0 mm 2 m/s 741 mmHg 81%
Voir plus

Nous avons besoin de votre consentement

Meteoprog et ses fournisseurs de services peuvent stocker et accéder à des données personnelles telles que des cookies, des identifiants d'appareils ou d'autres technologies similaires sur votre appareil et traiter ces données pour personnaliser le contenu et les publicités, ainsi que pour fournir des fonctionnalités de médias sociaux et analyser le trafic.

  • Stocker et/ou accéder à des informations sur votre appareil

    Des cookies, des identifiants d'appareils ou d'autres informations peuvent être stockés ou accessibles sur votre appareil aux fins indiquées ci-dessus.

  • Annonces et contenus personnalisés, mesure des annonces et des contenus, connaissance de l'audience et développement de produits

    Les annonces et le contenu peuvent être personnalisés en fonction d'un profil. D'autres données peuvent être ajoutées pour mieux personnaliser les annonces et le contenu. Les performances des publicités et du contenu peuvent être mesurées. Il est possible d'obtenir des informations sur le public qui a vu les publicités et le contenu. Ces données peuvent être utilisées pour développer ou améliorer l'expérience de l'utilisateur, les systèmes et les logiciels.

En cliquant sur "J'accepte", vous autorisez l'utilisation de cookies, des identifiants d'appareils, des balises web ou d'autres technologies similaires. Vos paramètres peuvent être modifiés dans le navigateur de votre appareil.

Dans certains cas, des intérêts légitimes peuvent être invoqués plutôt qu'un consentement. Vous pouvez en savoir plus à ce sujet dans notre Politique de confidentialité et de cookies.